When you browse on this site, cookies collect data to enhance your experience and personalize the content and advertising you see.
Visit our Privacy Policy to learn more. By continuing to use the site, you agree to this use of cookies and data.
  • In Belgium
  • List of Countries
  • For 7 days
  • Water Temperature
  • Weather Map
  • Weather Widgets
  • user-avatar
    Login

    Hourly Weather Brisbane

    Today, 13 December, Friday

    Time Temperature Precipitation Wind Pressure Humidity
    00:00 +24°C° 0 mm 2 mps 757 mmHg 81%
    01:00 +24°C° 0 mm 1 mps 756 mmHg 79%
    02:00 +24°C° 0 mm 1 mps 756 mmHg 78%
    03:00 +24°C° 0 mm 1 mps 756 mmHg 78%
    04:00 +23°C° 0 mm 1 mps 756 mmHg 77%
    05:00 +25°C° 0 mm 1 mps 756 mmHg 72%
    06:00 +26°C° 0 mm 1 mps 757 mmHg 67%
    07:00 +28°C° 0 mm 1 mps 757 mmHg 62%
    08:00 +29°C° 0 mm 1 mps 757 mmHg 57%
    09:00 +31°C° 0 mm 2 mps 757 mmHg 52%
    10:00 +33°C° 0 mm 4 mps 756 mmHg 51%
    11:00 +32°C° 0.6 mm 4 mps 756 mmHg 55%
    12:00 +32°C° 0.6 mm 4 mps 756 mmHg 58%
    13:00 +32°C° 0.6 mm 4 mps 755 mmHg 61%
    14:00 +30°C° 0.4 mm 4 mps 755 mmHg 62%
    15:00 +30°C° 0.4 mm 4 mps 755 mmHg 64%
    16:00 +29°C° 0 mm 5 mps 754 mmHg 66%
    17:00 +28°C° 0.4 mm 4 mps 755 mmHg 71%
    18:00 +27°C° 0.4 mm 4 mps 755 mmHg 75%
    19:00 +26°C° 0.4 mm 3 mps 756 mmHg 80%
    20:00 +26°C° 0.1 mm 3 mps 757 mmHg 81%
    21:00 +26°C° 0.1 mm 2 mps 757 mmHg 81%
    22:00 +25°C° 0 mm 1 mps 757 mmHg 83%
    23:00 +25°C° 0 mm 1 mps 757 mmHg 84%

    Tomorrow, 14 December, Saturday

    Time Temperature Precipitation Wind Pressure Humidity
    00:00 +24°C° 0 mm 1 mps 757 mmHg 86%
    01:00 +24°C° 0 mm 1 mps 756 mmHg 87%
    02:00 +24°C° 0 mm 1 mps 756 mmHg 87%
    03:00 +24°C° 0 mm 1 mps 756 mmHg 87%
    04:00 +24°C° 0 mm 1 mps 756 mmHg 87%
    05:00 +25°C° 0 mm 1 mps 756 mmHg 82%
    06:00 +26°C° 0 mm 1 mps 756 mmHg 77%
    07:00 +27°C° 0 mm 1 mps 757 mmHg 71%
    08:00 +29°C° 0 mm 1 mps 756 mmHg 65%
    09:00 +30°C° 0 mm 2 mps 756 mmHg 59%
    10:00 +31°C° 0 mm 2 mps 756 mmHg 54%
    11:00 +33°C° 0 mm 3 mps 756 mmHg 52%
    12:00 +34°C° 0 mm 3 mps 755 mmHg 50%
    13:00 +34°C° 0 mm 4 mps 755 mmHg 48%
    14:00 +33°C° 0.1 mm 4 mps 754 mmHg 51%
    15:00 +32°C° 0.1 mm 5 mps 754 mmHg 55%
    16:00 +32°C° 0.1 mm 5 mps 753 mmHg 59%
    17:00 +29°C° 0 mm 4 mps 754 mmHg 65%
    18:00 +28°C° 0 mm 3 mps 754 mmHg 72%
    19:00 +27°C° 0 mm 3 mps 755 mmHg 79%
    20:00 +26°C° 0 mm 2 mps 755 mmHg 82%
    21:00 +26°C° 0 mm 2 mps 756 mmHg 84%
    22:00 +26°C° 0 mm 2 mps 756 mmHg 87%
    23:00 +25°C° 0 mm 2 mps 756 mmHg 88%

    Day after tomorrow, 15 December, Sunday

    Time Temperature Precipitation Wind Pressure Humidity
    00:00 +25°C° 0 mm 2 mps 756 mmHg 89%
    01:00 +25°C° 0 mm 2 mps 755 mmHg 90%
    02:00 +25°C° 0 mm 2 mps 755 mmHg 90%
    03:00 +24°C° 0 mm 2 mps 755 mmHg 90%
    04:00 +24°C° 0 mm 2 mps 755 mmHg 90%
    05:00 +25°C° 0 mm 1 mps 756 mmHg 84%
    06:00 +27°C° 0 mm 1 mps 756 mmHg 78%
    07:00 +28°C° 0 mm 1 mps 756 mmHg 72%
    08:00 +30°C° 0 mm 1 mps 756 mmHg 62%
    09:00 +34°C° 0 mm 2 mps 756 mmHg 52%
    10:00 +36°C° 0 mm 2 mps 756 mmHg 42%
    11:00 +36°C° 0 mm 3 mps 755 mmHg 41%
    12:00 +37°C° 0 mm 4 mps 755 mmHg 41%
    13:00 +37°C° 0 mm 4 mps 754 mmHg 41%
    14:00 +36°C° 0 mm 5 mps 754 mmHg 46%
    15:00 +34°C° 0 mm 6 mps 753 mmHg 51%
    16:00 +33°C° 0 mm 6 mps 753 mmHg 56%
    17:00 +32°C° 0 mm 6 mps 753 mmHg 62%
    18:00 +29°C° 0 mm 5 mps 753 mmHg 69%
    19:00 +28°C° 0 mm 5 mps 754 mmHg 75%
    20:00 +27°C° 0 mm 4 mps 755 mmHg 77%
    21:00 +27°C° 0 mm 3 mps 755 mmHg 79%
    22:00 +27°C° 0 mm 3 mps 756 mmHg 81%
    23:00 +26°C° 0 mm 2 mps 756 mmHg 82%

    16 December, Monday

    Time Temperature Precipitation Wind Pressure Humidity
    00:00 +26°C° 0 mm 2 mps 755 mmHg 83%
    01:00 +25°C° 0 mm 2 mps 755 mmHg 84%
    02:00 +25°C° 0 mm 2 mps 755 mmHg 85%
    03:00 +25°C° 0 mm 1 mps 755 mmHg 86%
    04:00 +25°C° 0 mm 1 mps 755 mmHg 87%
    05:00 +26°C° 0 mm 1 mps 755 mmHg 81%
    06:00 +27°C° 0 mm 2 mps 755 mmHg 74%
    07:00 +28°C° 0 mm 2 mps 756 mmHg 68%
    08:00 +31°C° 0 mm 2 mps 756 mmHg 55%
    09:00 +36°C° 0 mm 2 mps 755 mmHg 42%
    10:00 +39°C° 0 mm 2 mps 755 mmHg 30%
    11:00 +40°C° 0 mm 2 mps 755 mmHg 25%
    12:00 +41°C° 0 mm 2 mps 754 mmHg 21%
    13:00 +44°C° 0 mm 3 mps 753 mmHg 17%
    14:00 +42°C° 0 mm 3 mps 753 mmHg 22%
    15:00 +40°C° 0 mm 4 mps 753 mmHg 27%
    16:00 +39°C° 0 mm 5 mps 753 mmHg 32%
    17:00 +35°C° 0 mm 5 mps 754 mmHg 38%
    18:00 +33°C° 0 mm 5 mps 755 mmHg 44%
    19:00 +30°C° 0 mm 5 mps 756 mmHg 51%
    20:00 +29°C° 0 mm 5 mps 757 mmHg 54%
    21:00 +27°C° 0 mm 5 mps 758 mmHg 57%
    22:00 +26°C° 0 mm 5 mps 759 mmHg 60%
    23:00 +25°C° 0 mm 5 mps 759 mmHg 64%

    17 December, Tuesday

    Time Temperature Precipitation Wind Pressure Humidity
    00:00 +25°C° 0 mm 4 mps 759 mmHg 68%
    01:00 +23°C° 0 mm 4 mps 759 mmHg 73%
    02:00 +23°C° 0 mm 4 mps 759 mmHg 74%
    03:00 +23°C° 0 mm 4 mps 759 mmHg 76%
    04:00 +22°C° 0 mm 4 mps 759 mmHg 77%
    05:00 +23°C° 0 mm 5 mps 760 mmHg 72%
    06:00 +25°C° 0 mm 5 mps 760 mmHg 67%
    07:00 +26°C° 0 mm 5 mps 761 mmHg 62%
    08:00 +27°C° 0 mm 5 mps 761 mmHg 56%
    09:00 +28°C° 0 mm 6 mps 761 mmHg 51%
    10:00 +29°C° 0 mm 6 mps 761 mmHg 46%
    11:00 +30°C° 0 mm 6 mps 761 mmHg 45%
    12:00 +30°C° 0 mm 6 mps 761 mmHg 44%
    13:00 +30°C° 0 mm 7 mps 760 mmHg 43%
    14:00 +30°C° 0 mm 7 mps 760 mmHg 44%
    15:00 +29°C° 0 mm 7 mps 760 mmHg 46%
    16:00 +28°C° 0 mm 7 mps 760 mmHg 48%
    17:00 +27°C° 0 mm 6 mps 761 mmHg 53%
    18:00 +24°C° 0 mm 6 mps 761 mmHg 58%
    19:00 +23°C° 0 mm 5 mps 762 mmHg 63%
    20:00 +22°C° 0 mm 5 mps 762 mmHg 66%
    21:00 +22°C° 0 mm 4 mps 763 mmHg 68%
    22:00 +21°C° 0 mm 4 mps 763 mmHg 71%
    23:00 +21°C° 0 mm 4 mps 763 mmHg 72%

    18 December, Wednesday

    Time Temperature Precipitation Wind Pressure Humidity
    00:00 +20°C° 0 mm 4 mps 762 mmHg 74%
    01:00 +20°C° 0 mm 3 mps 762 mmHg 75%
    02:00 +20°C° 0 mm 3 mps 762 mmHg 77%
    03:00 +19°C° 0 mm 3 mps 762 mmHg 78%
    04:00 +19°C° 0 mm 3 mps 762 mmHg 79%
    05:00 +20°C° 0 mm 3 mps 762 mmHg 73%
    06:00 +21°C° 0 mm 3 mps 763 mmHg 67%
    07:00 +22°C° 0 mm 3 mps 763 mmHg 62%
    08:00 +25°C° 0 mm 4 mps 763 mmHg 56%
    09:00 +26°C° 0 mm 4 mps 763 mmHg 50%
    10:00 +28°C° 0 mm 4 mps 763 mmHg 44%
    11:00 +29°C° 0 mm 4 mps 762 mmHg 42%
    12:00 +29°C° 0 mm 5 mps 762 mmHg 39%
    13:00 +30°C° 0 mm 5 mps 762 mmHg 37%
    14:00 +29°C° 0 mm 5 mps 761 mmHg 38%
    15:00 +29°C° 0 mm 5 mps 761 mmHg 39%
    16:00 +28°C° 0 mm 5 mps 761 mmHg 41%
    17:00 +27°C° 0 mm 4 mps 761 mmHg 48%
    18:00 +25°C° 0 mm 3 mps 762 mmHg 55%
    19:00 +22°C° 0 mm 3 mps 762 mmHg 63%
    20:00 +22°C° 0 mm 3 mps 762 mmHg 66%
    21:00 +21°C° 0 mm 2 mps 763 mmHg 69%
    22:00 +21°C° 0 mm 2 mps 763 mmHg 72%
    23:00 +20°C° 0 mm 2 mps 763 mmHg 74%
    Show more